LESO

San Sebastián

Airport
ICAO code
LESO
Summary
ICAO Region
EUR
ICAO Territory
Location

Hondarribia, Basque Country,

Coordinates
43° 21' 23" N , 1° 47' 26" W
Metar
Observation
LESO 050030Z AUTO 21004KT 9999 SCT060 03/02 Q1014
Station
San Sebastian / Fuenterrabia
Date/Time
2022-12-05 00:30:00
Wind direction
210°
Wind speed
04 kts
Lowest cloud amount
scattered clouds
Temperature
3°C
Dew point
2°C
Humidity
93%
QNH
1014 hPa
Weather condition
n/a

Description

San Sebastián Airport is the airport serving San Sebastián in Basque Country, Spain. Despite its name, the facilities are located in the municipality of Hondarribia, with the runway stretching like a spit of land along the river Bidasoa right on the Spanish-French border.

Climatology

Runways

Designator Length Width Surface Rops
4/22 1754 45 ASP Yes/Yes

Airport map

Aerial View

SKYbrary Partners:

Safety knowledge contributed by: